Location: Espelette
(43.3402°N, 1.4474°W)
Time: 23:38:12
(UTC+00:00)

Spot 4 - Pass Details

Date: 19 May 2025
Orbit: 699 x 715 km, 98.3° (Epoch: 18 June)

Event Time Altitude Azimuth Distance (km) Brightness Sun altitude
Exits shadow 22:56:47 49° 81° (E) 910 4.2 -24.9°
Maximum altitude 22:57:00 49° 71° (ENE) 905 4.3 -24.9°
Drops below altitude 10° 23:01:36 10° 357° (N) 2,181 7.3 -25.2°
Sets 23:03:55 0° 353° (N) 3,106 8.5 -25.3°
